sat.trackr.live / text

‹ back to catalog

STARLINK-31522

NORAD 59204 · 2024-046D

PAYLOAD ACTIVE UNKNOWN

§ Identity

Operator
Country
US
Launch date
2024-03-11
Launch site
AFWTR
Launch vehicle
Mass (kg)
RCS (m²)

Purposes: comms

External: N2YO · Heavens-Above · Gunter

§ Orbital elements

Epoch: 2026-09-20T11:26:08.589120Z

Period
93.85 min
Inclination
53.1593°
Eccentricity
0.0001249
Mean motion
15.34402375 rev/d
Perigee alt
461.8 km
Apogee alt
463.6 km
Semi-major
6,840.8 km
B*
6.0294e-5
RAAN
329.7757°
Arg perigee
84.4922°
Mean anomaly
275.6223°
Rev number
14,288

§ Raw data

STARLINK-315221 59204U 24046D   26263.47648830  .00001661  00000+0  60294-4 0  99932 59204  53.1593 329.7757 0001249  84.4922 275.6223 15.34402375142887

JSON: /api/v1/satellites/59204 · /tle

For live sub-satellite position, see the globe view (requires WebGL).

§ Visibility from observer

Set your observer location to see the next 7 days of passes ≥ 10°. The values pass through the URL so the page stays shareable.

No JS? Fill the form by hand. The geolocation button needs JavaScript.